Find Starlink 30400

NORAD ID: 57937 Int'l Des: 2023-148 Owner: SPXS Country: US Constellation: starlink operational
LEOCIRCULAR

当前视图

正在加载3D地球...

About Starlink 30400

Starlink 30400 (NORAD 57937) is a starlink constellation satellite (v2 mini) launched Sep 25, 2023 by SPXS of US. It operates in LEO, CIRCULAR orbit with a mass of 730.00 kg.

关于 Starlink 30400

正在加载描述...

即将过境

Passes for default location (London). Set your location on the main map for personalized predictions.

高度历史

Loading altitude history...

两行轨道根数

1 57937U 23148C 26166.54370132 .00002562 00000-0 86975-4 0 9999
2 57937 53.1623 289.0651 0001398 92.2598 267.8564 15.34388082153414
Epoch: Jun 15, 2026 • Age: 5 hours

当前状态

高度 463.6 km
速度 7.64 km/s
星下点 0.41°N, 118.32°E
发射日期 Sep 25, 2023
运行时间 2.7 years
类型 internet

技术详情

分类 Payload
质量 730.00 kg
干质量 700.00 kg
总质量 730.00 kg
长度 0.30 m
直径 4.10 m
跨度 29.00 m
形状 Box + pan
制造商 SPXS
平台类型 Starlink V2M
阶段状态 In Orbit
所有者/国家 SPXS/US

Most Searched